Location: La Brionne
(46.1728°N, 1.7849°E)
Time: 22:14:11
(UTC+00:00)

Okean 1 Rocket - Pass Details

Date: 16 June 2021
Orbit: 607 x 633 km, 82.5° (Epoch: 02 August)

Event Time Altitude Azimuth Distance (km) Brightness Sun altitude
Rises 20:23:14 0° 352° (N) 2,884 7.4 -5.7°
Reaches altitude 10° 20:25:28 10° 353° (N) 1,977 6.5 -6.0°
Maximum altitude 20:29:50 79° 80° (E) 631 3.1 -6.5°
Drops below altitude 10° 20:34:13 10° 168° (SSE) 1,974 5.1 -7.1°
Enters shadow 20:35:27 - 169° (S) 2,475 5.6 -7.2°
